Vorticity
4 4 4 4 4 4 4 4 4 4 4 4 4 4 4 4 5 5 6 6 7 5 6 6 5 6 5 5 7 5 4 4 5 7 6 6 9 0 1 2 2 6 3 3 1
4 4 4 4 4 4 4 4 4 4 4 4 4 4 5 5 6 6 6 6 6 6 6 6 6 6 6 5 5 4 2 5 7 5 5 5 4 6 -4 -5 -4 -4 0 2 3
4 4 4 4 4 4 3 3 4 4 4 4 4 4 5 5 7 6 8 6 6 7 7 6 6 7 9 9 6 4 4 2 1 -1 -2 -1 1 4 9 12 2 7 5 6 2
5 5 5 4 4 4 4 3 3 3 4 5 5 4 5 4 10 17 9 11 10 11 9 9 10 6 2 3 7 10 8 7 7 6 5 5 7 6 6 8 8 9 13 11 10
6 5 5 5 5 4 4 4 5 4 4 4 4 4 6 6 3 6 2 4 4 6 5 6 7 8 7 6 8 7 6 6 5 5 6 7 8 9 8 12 9 8 3 3 3
6 6 6 5 5 5 5 5 5 5 5 5 5 5 6 5 8 11 7 5 6 6 5 5 5 6 6 5 5 5 6 6 6 7 6 7 8 9 8 6 4 6 8 8 12
9 6 6 6 6 6 6 7 5 5 6 6 5 6 5 5 3 3 4 4 3 3 4 5 5 5 3 8 11 7 9 6 7 6 8 4 7 16 9 9 7 5 11 11 13
6 9 9 7 7 6 6 5 7 5 6 7 7 5 10 2 6 3 4 5 5 6 6 4 4 3 5 4 4 4 7 14 16 15 5 14 5 7 10 6 6 8 21 12 7
5 6 4 8 8 7 6 5 5 7 5 5 5 3 13 10 7 4 5 6 5 5 7 5 6 4 7 3 8 20 1 3 19 13 15 7 3 2 9 7 10 11 11 13 7
4 11 -2 6 6 5 5 5 4 5 4 3 3 8 5 -13 -2 1 12 16 23 21 20 15 12 5 3 9 -4 11 16 8 -5 -4 7 10 8 6 5 9 10 11 6 -2 5
16 -10 -15 -2 8 3 5 4 5 6 3 3 -10 14 29 9 -13 -4 7 9 8 11 8 7 9 -5 14 20 20 13 8 7 8 18 11 11 10 10 12 12 15 16 18 13 -4
-2 -13 3 11 4 2 4 3 6 -0 14 6 5 3 3 2 0 5 7 11 3 -1 2 7 2 10 15 11 6 6 6 6 19 28 -5 14 8 10 10 15 10 9 10 10 26
27 -16 -8 25 12 6 4 9 7 4 5 6 2 5 3 7 6 5 8 1 2 6 7 5 -12 5 27 11 10 7 7 14 3 -2 4 4 25 27 7 4 13 16 16 19 13
-7 29 16 5 30 16 12 7 8 6 5 37 22 17 12 5 2 3 2 3 6 5 7 32 16 7 3 29 13 10 11 9 1 4 9 -16 -1 -3 1 20 2 6 7 9 14
27 25 34 21 10 7 16 6 12 8 2 29 42 14 24 29 14 28 23 6 3 1 -0 -19 10 29 8 -18 11 5 1 5 1 10 15 6 24 36 9 0 7 5 4 10 8
-24 25 -6 3 18 -3 22 19 14 6 15 14 12 28 13 18 13 -1 28 35 18 -9 3 7 -0 12 21 34 3 3 8 12 18 11 28 35 -2 22 14 21 18 -0 -0 3 4
5 -6 13 3 3 18 -7 33 -8 -8 6 28 9 3 23 17 19 6 7 13 -8 28 14 16 6 -7 5 27 11 14 16 7 14 12 5 17 21 -26 -13 -8 -11 4 11 7 4
-3 -25 43 1 5 17 24 39 -16 40 -16 11 24 20 9 8 20 10 4 15 13 5 55 -4 49 22 -6 -7 1 -5 -4 -16 9 8 9 4 12 3 13 10 10 8 10 9 8
30 3 -12 -20 -22 4 25 -18 -3 30 2 -5 17 12 10 14 -3 10 8 9 12 1 -36 22 17 -2 49 -6 -0 17 7 -10 -20 13 6 5 12 3 11 7 6 6 6 4 4
43 -0 -32 44 -3 20 19 -42 -2 -33 -30 5 -2 3 9 4 -7 12 -1 50 13 17 5 -9 -2 29 15 24 35 -26 20 11 4 4 6 29 8 -27 1 9 6 7 5 7 11
6 44 -1 12 31 10 -37 7 -31 -32 -23 -17 -5 -4 -7 8 6 7 0 -28 32 22 18 -28 -1 23 14 9 19 14 8 3 31 -41 -1 9 20 15 14 23 5 3 5 5 -1
31 20 -13 -2 36 4 43 -17 -26 68 -4 7 17 3 -2 6 18 -8 -6 -18 41 28 16 18 19 -0 6 6 19 34 19 -5 -24 12 20 -15 3 -14 21 11 4 2 6 9 4
2 33 0 -54 -28 62 -1 3 34 -6 24 -1 -3 20 13 -7 4 14 19 4 -6 6 19 18 13 19 51 4 -4 10 4 12 8 11 10 -30 7 24 27 19 1 5 -3 7 -31
39 -29 91 -42 -30 -1 20 9 -38 18 20 5 -6 12 -22 -2 6 2 14 15 7 -5 14 40 -5 -13 -41 -13 20 10 -6 10 18 -6 -5 -13 -12 7 4 4 7 2 3 10 2
-12 71 -20 53 37 25 -28 13 7 -8 27 26 13 -5 13 8 14 6 19 11 -1 5 10 4 12 3 -1 2 -1 28 29 12 5 -0 -22 2 -2 4 1 9 12 7 2 3 -10
7 -35 45 -54 24 -48 39 30 -11 -41 69 -7 -12 22 37 -17 -21 4 4 -13 -6 14 18 4 -18 25 10 1 4 10 3 16 21 13 15 6 -0 19 35 13 10 8 -4 1 9
72 -23 -18 5 25 -30 15 -11 35 -4 3 -33 -6 16 34 10 -10 13 12 18 -3 6 8 13 2 -10 29 22 25 40 -3 -1 5 9 10 2 6 13 -2 5 3 4 14 16 10
Height
3116 3120 3124 3127 3130 3133 3135 3137 3140 3141 3143 3144 3146 3148 3149 3151 3152 3153 3154 3155 3156 3157 3158 3159 3160 3160 3160 3160 3161 3161 3162 3161 3163 3163 3164 3164 3165 3165 3165 3166 3166 3165 3166 3166 3166
3111 3114 3118 3121 3124 3127 3130 3132 3135 3137 3139 3141 3142 3144 3146 3148 3149 3149 3151 3152 3153 3153 3155 3156 3157 3158 3158 3158 3159 3159 3160 3160 3161 3160 3161 3161 3162 3162 3163 3164 3163 3163 3162 3162 3163
3104 3108 3112 3115 3119 3122 3124 3127 3129 3132 3134 3136 3138 3139 3141 3144 3146 3145 3146 3147 3148 3150 3151 3152 3153 3154 3155 3155 3156 3156 3156 3158 3158 3159 3158 3158 3158 3158 3158 3160 3159 3157 3156 3156 3156
3097 3102 3106 3110 3113 3116 3119 3121 3124 3126 3129 3131 3133 3135 3137 3140 3145 3142 3144 3144 3145 3146 3147 3149 3151 3151 3152 3152 3153 3154 3154 3153 3155 3155 3155 3155 3154 3153 3154 3154 3153 3151 3149 3149 3150
3090 3095 3099 3104 3107 3110 3113 3116 3119 3122 3123 3125 3128 3131 3133 3136 3139 3140 3141 3142 3143 3143 3144 3145 3147 3148 3148 3149 3149 3150 3150 3151 3151 3152 3151 3150 3150 3148 3149 3148 3147 3146 3144 3144 3145
3082 3088 3093 3097 3101 3104 3108 3111 3113 3116 3118 3119 3122 3125 3128 3132 3133 3136 3137 3138 3139 3140 3140 3141 3143 3144 3145 3145 3145 3145 3146 3147 3148 3149 3146 3144 3145 3145 3147 3145 3144 3143 3141 3140 3140
3076 3081 3086 3090 3095 3099 3102 3106 3108 3109 3112 3114 3117 3118 3121 3129 3128 3131 3133 3134 3135 3136 3137 3137 3138 3140 3141 3141 3140 3140 3141 3141 3143 3143 3144 3141 3140 3142 3140 3140 3140 3139 3138 3138 3137
3068 3073 3079 3084 3088 3092 3095 3098 3102 3103 3106 3108 3111 3113 3116 3123 3123 3124 3126 3130 3130 3132 3133 3132 3133 3135 3135 3137 3138 3137 3135 3135 3139 3140 3140 3139 3134 3137 3137 3134 3135 3135 3135 3134 3136
3059 3066 3071 3077 3081 3084 3088 3090 3093 3098 3098 3102 3106 3109 3113 3115 3118 3119 3121 3124 3126 3127 3128 3127 3127 3127 3127 3133 3134 3130 3130 3131 3134 3135 3135 3133 3130 3133 3132 3132 3131 3131 3132 3131 3133
3050 3057 3063 3069 3075 3077 3079 3083 3087 3089 3092 3096 3101 3109 3108 3109 3111 3113 3116 3117 3120 3121 3123 3123 3120 3120 3125 3126 3127 3129 3128 3127 3128 3132 3129 3129 3127 3127 3128 3128 3128 3127 3127 3127 3127
3040 3048 3055 3061 3066 3067 3072 3077 3081 3081 3083 3093 3095 3098 3100 3104 3108 3109 3110 3113 3115 3117 3119 3119 3116 3114 3119 3122 3125 3125 3126 3124 3126 3128 3123 3124 3122 3124 3125 3123 3122 3121 3122 3123 3123
3027 3036 3044 3049 3054 3058 3063 3065 3072 3078 3079 3083 3085 3088 3093 3096 3100 3102 3104 3109 3111 3113 3114 3115 3109 3115 3116 3117 3118 3120 3121 3123 3124 3125 3121 3121 3119 3121 3120 3118 3117 3117 3116 3116 3117
3019 3027 3035 3040 3042 3045 3051 3061 3066 3069 3074 3073 3077 3077 3089 3087 3088 3093 3099 3101 3105 3107 3108 3109 3108 3108 3111 3112 3114 3115 3117 3120 3122 3122 3122 3119 3115 3116 3114 3114 3113 3112 3112 3112 3111
3011 3017 3025 3029 3031 3036 3044 3055 3058 3065 3068 3059 3066 3065 3075 3078 3074 3089 3089 3096 3097 3099 3104 3102 3105 3105 3105 3107 3111 3112 3116 3118 3119 3120 3121 3120 3114 3110 3111 3111 3110 3108 3109 3108 3107
3003 3010 3013 3020 3024 3028 3044 3045 3048 3055 3061 3054 3050 3052 3060 3068 3069 3075 3085 3084 3087 3091 3096 3095 3098 3099 3100 3105 3108 3110 3114 3116 3117 3117 3118 3119 3118 3105 3107 3109 3108 3107 3106 3106 3105
2993 3001 3008 3010 3017 3030 3034 3033 3040 3051 3044 3042 3040 3042 3051 3058 3061 3065 3072 3075 3081 3086 3087 3090 3093 3096 3096 3100 3103 3109 3111 3113 3113 3115 3113 3111 3114 3104 3104 3106 3108 3108 3107 3106 3105
2982 2992 2999 3004 3010 3021 3026 3027 3036 3034 3033 3036 3032 3037 3047 3051 3055 3057 3062 3067 3071 3079 3078 3083 3085 3091 3094 3096 3098 3102 3107 3110 3113 3113 3108 3106 3108 3101 3102 3103 3104 3105 3107 3108 3106
2970 2985 2991 2996 3005 3011 3016 3015 3020 3022 3025 3031 3029 3037 3041 3046 3051 3052 3058 3061 3065 3069 3070 3074 3078 3080 3085 3088 3093 3095 3100 3102 3106 3107 3103 3104 3101 3098 3099 3101 3101 3101 3104 3106 3106
2960 2970 2980 2982 2994 3004 3008 2993 3004 3006 3022 3030 3026 3032 3036 3041 3047 3049 3052 3055 3058 3061 3069 3071 3073 3075 3076 3082 3089 3091 3092 3099 3099 3100 3101 3097 3094 3094 3094 3096 3098 3098 3100 3102 3104
2947 2959 2967 2973 2987 2996 2994 2990 2997 3003 3018 3025 3022 3024 3031 3036 3041 3044 3046 3046 3051 3057 3062 3068 3072 3072 3074 3076 3081 3083 3088 3092 3095 3098 3098 3090 3089 3087 3088 3091 3093 3093 3095 3097 3098
2940 2946 2954 2963 2978 2981 2975 2982 2990 3001 3010 3016 3020 3022 3026 3029 3038 3040 3038 3042 3046 3052 3058 3063 3069 3072 3071 3069 3071 3076 3078 3082 3085 3085 3085 3087 3081 3080 3083 3087 3088 3089 3091 3092 3093
2924 2935 2946 2954 2958 2960 2961 2973 2980 2989 3003 3008 3015 3016 3018 3025 3034 3035 3033 3041 3044 3047 3049 3056 3065 3066 3067 3066 3068 3070 3071 3075 3077 3078 3078 3079 3075 3076 3080 3082 3083 3084 3085 3087 3087
2917 2926 2933 2941 2937 2940 2959 2965 2974 2982 2990 2998 3005 3010 3012 3018 3029 3028 3032 3037 3041 3043 3043 3050 3055 3061 3063 3066 3062 3062 3063 3067 3071 3074 3072 3078 3072 3070 3074 3076 3079 3079 3080 3082 3083
2905 2909 2916 2926 2929 2940 2953 2958 2965 2974 2980 2987 2994 3005 3010 3013 3019 3020 3027 3032 3035 3037 3042 3046 3047 3046 3046 3048 3050 3052 3054 3057 3061 3064 3064 3063 3066 3066 3068 3071 3072 3073 3075 3075 3076
2884 2893 2900 2911 2917 2932 2944 2948 2959 2966 2972 2978 2986 2992 2996 3005 3011 3016 3020 3024 3027 3033 3036 3039 3038 3040 3041 3043 3045 3044 3045 3047 3051 3052 3054 3056 3058 3061 3064 3066 3066 3069 3069 3070 3071
2870 2885 2898 2905 2919 2924 2932 2941 2949 2959 2963 2968 2974 2981 2989 2995 3002 3010 3012 3015 3020 3025 3028 3029 3031 3033 3034 3037 3040 3039 3039 3040 3043 3044 3047 3051 3052 3055 3060 3061 3063 3065 3065 3064 3063
2866 2883 2896 2901 2911 2918 2920 2933 2940 2953 2958 2964 2972 2977 2981 2992 3001 3005 3007 3011 3013 3017 3021 3025 3022 3026 3028 3032 3032 3034 3026 3030 3032 3035 3040 3042 3047 3050 3052 3054 3055 3055 3054 3054 3053